Year,Month,Day,Hour,Minute,Value (Times are PST for temperature in C)
2007,07,14,00,00,16.00
2007,07,14,00,01,15.80
2007,07,14,00,02,15.80
2007,07,14,00,03,15.70
2007,07,14,00,04,15.60
2007,07,14,00,05,15.60
2007,07,14,00,06,15.50
2007,07,14,00,07,15.50
2007,07,14,00,08,15.50
2007,07,14,00,09,15.40
2007,07,14,00,10,15.40
2007,07,14,00,11,15.40
2007,07,14,00,12,15.40
2007,07,14,00,13,15.40
2007,07,14,00,14,15.40
2007,07,14,00,15,15.40
2007,07,14,00,16,15.40
2007,07,14,00,17,15.40
2007,07,14,00,18,15.40
2007,07,14,00,19,15.40
2007,07,14,00,20,15.40
2007,07,14,00,21,15.40
2007,07,14,00,22,15.40
2007,07,14,00,23,15.40
2007,07,14,00,24,15.40
2007,07,14,00,25,15.40
2007,07,14,00,26,15.40
2007,07,14,00,27,15.40
2007,07,14,00,28,15.40
2007,07,14,00,29,15.50
2007,07,14,00,30,15.50
2007,07,14,00,31,15.60
2007,07,14,00,32,15.70
2007,07,14,00,33,15.80
2007,07,14,00,34,15.80
2007,07,14,00,35,15.90
2007,07,14,00,36,15.90
2007,07,14,00,37,16.10
2007,07,14,00,38,16.10
2007,07,14,00,39,16.10
2007,07,14,00,40,16.20
2007,07,14,00,41,16.20
2007,07,14,00,42,16.20
2007,07,14,00,43,16.20
2007,07,14,00,44,16.20
2007,07,14,00,45,16.10
2007,07,14,00,46,16.10
2007,07,14,00,47,16.10
2007,07,14,00,48,16.10
2007,07,14,00,49,16.10
2007,07,14,00,50,16.10
2007,07,14,00,51,16.00
2007,07,14,00,52,15.90
2007,07,14,00,53,15.90
2007,07,14,00,54,15.90
2007,07,14,00,55,15.90
2007,07,14,00,56,15.90
2007,07,14,00,57,15.80
2007,07,14,00,58,15.80
2007,07,14,00,59,15.80
2007,07,14,01,00,15.70
2007,07,14,01,01,15.70
2007,07,14,01,02,15.60
2007,07,14,01,03,15.60
2007,07,14,01,04,15.50
2007,07,14,01,05,15.50
2007,07,14,01,06,15.50
2007,07,14,01,07,15.40
2007,07,14,01,08,15.40
2007,07,14,01,09,15.30
2007,07,14,01,10,15.30
2007,07,14,01,11,15.30
2007,07,14,01,12,15.30
2007,07,14,01,13,15.20
2007,07,14,01,14,15.20
2007,07,14,01,15,15.10
2007,07,14,01,16,15.10
2007,07,14,01,17,15.10
2007,07,14,01,18,15.10
2007,07,14,01,19,15.10
2007,07,14,01,20,15.10
2007,07,14,01,21,15.00
2007,07,14,01,22,15.00
2007,07,14,01,23,15.00
2007,07,14,01,24,15.00
2007,07,14,01,25,14.90
2007,07,14,01,26,14.90
2007,07,14,01,27,14.90
2007,07,14,01,28,14.90
2007,07,14,01,29,14.90
2007,07,14,01,30,14.90
2007,07,14,01,31,14.90
2007,07,14,01,32,14.90
2007,07,14,01,33,14.90
2007,07,14,01,34,14.90
2007,07,14,01,35,14.90
2007,07,14,01,36,14.80
2007,07,14,01,37,14.80
2007,07,14,01,38,14.80
2007,07,14,01,39,14.80
2007,07,14,01,40,14.70
2007,07,14,01,41,14.70
2007,07,14,01,42,14.70
2007,07,14,01,43,14.60
2007,07,14,01,44,14.60
2007,07,14,01,45,14.60
2007,07,14,01,46,14.60
2007,07,14,01,47,14.50
2007,07,14,01,48,14.50
2007,07,14,01,49,14.50
2007,07,14,01,50,14.50
2007,07,14,01,51,14.40
2007,07,14,01,52,14.40
2007,07,14,01,53,14.30
2007,07,14,01,54,14.20
2007,07,14,01,55,14.20
2007,07,14,01,56,14.20
2007,07,14,01,57,14.20
2007,07,14,01,58,14.10
2007,07,14,01,59,14.10
2007,07,14,02,00,14.10
2007,07,14,02,01,14.00
2007,07,14,02,02,14.00
2007,07,14,02,03,14.00
2007,07,14,02,04,13.90
2007,07,14,02,05,13.90
2007,07,14,02,06,13.90
2007,07,14,02,07,13.90
2007,07,14,02,08,13.80
2007,07,14,02,09,13.80
2007,07,14,02,10,13.80
2007,07,14,02,11,13.70
2007,07,14,02,12,13.70
2007,07,14,02,13,13.70
2007,07,14,02,14,13.70
2007,07,14,02,15,13.70
2007,07,14,02,16,13.70
2007,07,14,02,17,13.70
2007,07,14,02,18,13.70
2007,07,14,02,19,13.70
2007,07,14,02,20,13.70
2007,07,14,02,21,13.70
2007,07,14,02,22,13.70
2007,07,14,02,23,13.60
2007,07,14,02,24,13.60
2007,07,14,02,25,13.60
2007,07,14,02,26,13.60
2007,07,14,02,27,13.60
2007,07,14,02,28,13.60
2007,07,14,02,29,13.60
2007,07,14,02,30,13.50
2007,07,14,02,31,13.50
2007,07,14,02,32,13.50
2007,07,14,02,33,13.50
2007,07,14,02,34,13.50
2007,07,14,02,35,13.50
2007,07,14,02,36,13.50
2007,07,14,02,37,13.50
2007,07,14,02,38,13.50
2007,07,14,02,39,13.50
2007,07,14,02,40,13.50
2007,07,14,02,41,13.50
2007,07,14,02,42,13.50
2007,07,14,02,43,13.50
2007,07,14,02,44,13.50
2007,07,14,02,45,13.50
2007,07,14,02,46,13.50
2007,07,14,02,47,13.50
2007,07,14,02,48,13.50
2007,07,14,02,49,13.60
2007,07,14,02,50,13.60
2007,07,14,02,51,13.60
2007,07,14,02,52,13.60
2007,07,14,02,53,13.60
2007,07,14,02,54,13.60
2007,07,14,02,55,13.60
2007,07,14,02,56,13.70
2007,07,14,02,57,13.70
2007,07,14,02,58,13.70
2007,07,14,02,59,13.70
2007,07,14,03,00,13.70
2007,07,14,03,01,13.70
2007,07,14,03,02,13.80
2007,07,14,03,03,13.80
2007,07,14,03,04,13.80
2007,07,14,03,05,13.90
2007,07,14,03,06,13.90
2007,07,14,03,07,13.90
2007,07,14,03,08,13.90
2007,07,14,03,09,13.90
2007,07,14,03,10,14.00
2007,07,14,03,11,14.00
2007,07,14,03,12,14.00
2007,07,14,03,13,14.00
2007,07,14,03,14,14.00
2007,07,14,03,15,14.00
2007,07,14,03,16,14.00
2007,07,14,03,17,14.00
2007,07,14,03,18,14.10
2007,07,14,03,19,14.10
2007,07,14,03,20,14.10
2007,07,14,03,21,14.10
2007,07,14,03,22,14.00
2007,07,14,03,23,14.00
2007,07,14,03,24,14.00
2007,07,14,03,25,14.00
2007,07,14,03,26,14.00
2007,07,14,03,27,14.00
2007,07,14,03,28,13.90
2007,07,14,03,29,13.90
2007,07,14,03,30,13.90
2007,07,14,03,31,13.90
2007,07,14,03,32,13.80
2007,07,14,03,33,13.80
2007,07,14,03,34,13.80
2007,07,14,03,35,13.80
2007,07,14,03,36,13.80
2007,07,14,03,37,13.80
2007,07,14,03,38,13.80
2007,07,14,03,39,13.80
2007,07,14,03,40,13.80
2007,07,14,03,41,13.90
2007,07,14,03,42,13.90
2007,07,14,03,43,13.80
2007,07,14,03,44,13.80
2007,07,14,03,45,13.80
2007,07,14,03,46,13.80
2007,07,14,03,47,13.80
2007,07,14,03,48,13.80
2007,07,14,03,49,13.70
2007,07,14,03,50,13.70
2007,07,14,03,51,13.70
2007,07,14,03,52,13.70
2007,07,14,03,53,13.60
2007,07,14,03,54,13.60
2007,07,14,03,55,13.60
2007,07,14,03,56,13.60
2007,07,14,03,57,13.50
2007,07,14,03,58,13.50
2007,07,14,03,59,13.50
2007,07,14,04,00,13.50
2007,07,14,04,01,13.50
2007,07,14,04,02,13.40
2007,07,14,04,03,13.40
2007,07,14,04,04,13.30
2007,07,14,04,05,13.30
2007,07,14,04,06,13.30
2007,07,14,04,07,13.30
2007,07,14,04,08,13.20
2007,07,14,04,09,13.20
2007,07,14,04,10,13.20
2007,07,14,04,11,13.20
2007,07,14,04,12,13.10
2007,07,14,04,13,13.10
2007,07,14,04,14,13.10
2007,07,14,04,15,13.00
2007,07,14,04,16,13.00
2007,07,14,04,17,13.00
2007,07,14,04,18,13.00
2007,07,14,04,19,13.00
2007,07,14,04,20,13.00
2007,07,14,04,21,13.00
2007,07,14,04,22,12.90
2007,07,14,04,23,12.90
2007,07,14,04,24,12.90
2007,07,14,04,25,12.90
2007,07,14,04,26,12.90
2007,07,14,04,27,12.90
2007,07,14,04,28,12.90
2007,07,14,04,29,12.90
2007,07,14,04,30,12.90
2007,07,14,04,31,12.90
2007,07,14,04,32,12.90
2007,07,14,04,33,12.90
2007,07,14,04,34,12.90
2007,07,14,04,35,12.90
2007,07,14,04,36,12.90
2007,07,14,04,37,12.90
2007,07,14,04,38,12.90
2007,07,14,04,39,13.00
2007,07,14,04,40,13.00
2007,07,14,04,41,13.00
2007,07,14,04,42,13.00
2007,07,14,04,43,13.00
2007,07,14,04,44,13.00
2007,07,14,04,45,12.90
2007,07,14,04,46,12.90
2007,07,14,04,47,12.90
2007,07,14,04,48,12.90
2007,07,14,04,49,12.90
2007,07,14,04,50,12.90
2007,07,14,04,51,12.90
2007,07,14,04,52,12.90
2007,07,14,04,53,12.90
2007,07,14,04,54,12.80
2007,07,14,04,55,12.80
2007,07,14,04,56,12.80
2007,07,14,04,57,12.80
2007,07,14,04,58,12.80
2007,07,14,04,59,12.80
2007,07,14,05,00,12.80
2007,07,14,05,01,12.80
2007,07,14,05,02,12.80
2007,07,14,05,03,12.80
2007,07,14,05,04,12.80
2007,07,14,05,05,12.80
2007,07,14,05,06,12.70
2007,07,14,05,07,12.70
2007,07,14,05,08,12.70
2007,07,14,05,09,12.70
2007,07,14,05,10,12.70
2007,07,14,05,11,12.70
2007,07,14,05,12,12.70
2007,07,14,05,13,12.70
2007,07,14,05,14,12.70
2007,07,14,05,15,12.70
2007,07,14,05,16,12.70
2007,07,14,05,17,12.70
2007,07,14,05,18,12.70
2007,07,14,05,19,12.60
2007,07,14,05,20,12.60
2007,07,14,05,21,12.70
2007,07,14,05,22,12.70
2007,07,14,05,23,12.70
2007,07,14,05,24,12.70
2007,07,14,05,25,12.70
2007,07,14,05,26,12.70
2007,07,14,05,27,12.70
2007,07,14,05,28,12.70
2007,07,14,05,29,12.70
2007,07,14,05,30,12.70
2007,07,14,05,31,12.70
2007,07,14,05,32,12.70
2007,07,14,05,33,12.70
2007,07,14,05,34,12.70
2007,07,14,05,35,12.70
2007,07,14,05,36,12.70
2007,07,14,05,37,12.60
2007,07,14,05,38,12.60
2007,07,14,05,39,12.60
2007,07,14,05,40,12.60
2007,07,14,05,41,12.60
2007,07,14,05,42,12.60
2007,07,14,05,43,12.60
2007,07,14,05,44,12.60
2007,07,14,05,45,12.60
2007,07,14,05,46,12.70
2007,07,14,05,47,12.70
2007,07,14,05,48,12.70
2007,07,14,05,49,12.70
2007,07,14,05,50,12.70
2007,07,14,05,51,12.70
2007,07,14,05,52,12.70
2007,07,14,05,53,12.70
2007,07,14,05,54,12.70
2007,07,14,05,55,12.70
2007,07,14,05,56,12.60
2007,07,14,05,57,12.60
2007,07,14,05,58,12.60
2007,07,14,05,59,12.60
2007,07,14,06,00,12.60
2007,07,14,06,01,12.60
2007,07,14,06,02,12.60
2007,07,14,06,03,12.60
2007,07,14,06,04,12.60
2007,07,14,06,05,12.60
2007,07,14,06,06,12.60
2007,07,14,06,07,12.60
2007,07,14,06,08,12.60
2007,07,14,06,09,12.60
2007,07,14,06,10,12.60
2007,07,14,06,11,12.60
2007,07,14,06,12,12.60
2007,07,14,06,13,12.60
2007,07,14,06,14,12.60
2007,07,14,06,15,12.60
2007,07,14,06,16,12.60
2007,07,14,06,17,12.60
2007,07,14,06,18,12.60
2007,07,14,06,19,12.60
2007,07,14,06,20,12.60
2007,07,14,06,21,12.60
2007,07,14,06,22,12.60
2007,07,14,06,23,12.60
2007,07,14,06,24,12.60
2007,07,14,06,25,12.60
2007,07,14,06,26,12.60
2007,07,14,06,27,12.50
2007,07,14,06,28,12.50
2007,07,14,06,29,12.50
2007,07,14,06,30,12.50
2007,07,14,06,31,12.50
2007,07,14,06,32,12.50
2007,07,14,06,33,12.50
2007,07,14,06,34,12.50
2007,07,14,06,35,12.50
2007,07,14,06,36,12.50
2007,07,14,06,37,12.50
2007,07,14,06,38,12.50
2007,07,14,06,39,12.50
2007,07,14,06,40,12.50
2007,07,14,06,41,12.50
2007,07,14,06,42,12.50
2007,07,14,06,43,12.50
2007,07,14,06,44,12.50
2007,07,14,06,45,12.50
2007,07,14,06,46,12.50
2007,07,14,06,47,12.50
2007,07,14,06,48,12.50
2007,07,14,06,49,12.50
2007,07,14,06,50,12.50
2007,07,14,06,51,12.50
2007,07,14,06,52,12.50
2007,07,14,06,53,12.50
2007,07,14,06,54,12.50
2007,07,14,06,55,12.50
2007,07,14,06,56,12.50
2007,07,14,06,57,12.50
2007,07,14,06,58,12.50
2007,07,14,06,59,12.60
2007,07,14,07,00,12.60
2007,07,14,07,01,12.60
2007,07,14,07,02,12.60
2007,07,14,07,03,12.60
2007,07,14,07,04,12.60
2007,07,14,07,05,12.60
2007,07,14,07,06,12.70
2007,07,14,07,07,12.70
2007,07,14,07,08,12.70
2007,07,14,07,09,12.80
2007,07,14,07,10,12.80
2007,07,14,07,11,12.80
2007,07,14,07,12,12.80
2007,07,14,07,13,12.90
2007,07,14,07,14,13.00
2007,07,14,07,15,13.00
2007,07,14,07,16,13.10
2007,07,14,07,17,13.20
2007,07,14,07,18,13.20
2007,07,14,07,19,13.30
2007,07,14,07,20,13.40
2007,07,14,07,21,13.40
2007,07,14,07,22,13.50
2007,07,14,07,23,13.50
2007,07,14,07,24,13.50
2007,07,14,07,25,13.50
2007,07,14,07,26,13.50
2007,07,14,07,27,13.50
2007,07,14,07,28,13.50
2007,07,14,07,29,13.60
2007,07,14,07,30,13.60
2007,07,14,07,31,13.60
2007,07,14,07,32,13.60
2007,07,14,07,33,13.60
2007,07,14,07,34,13.60
2007,07,14,07,35,13.60
2007,07,14,07,36,13.60
2007,07,14,07,37,13.60
2007,07,14,07,38,13.60
2007,07,14,07,39,13.70
2007,07,14,07,40,13.70
2007,07,14,07,41,13.70
2007,07,14,07,42,13.80
2007,07,14,07,43,13.80
2007,07,14,07,44,13.80
2007,07,14,07,45,13.90
2007,07,14,07,46,13.90
2007,07,14,07,47,13.90
2007,07,14,07,48,13.90
2007,07,14,07,49,14.00
2007,07,14,07,50,14.00
2007,07,14,07,51,14.00
2007,07,14,07,52,14.10
2007,07,14,07,53,14.10
2007,07,14,07,54,14.20
2007,07,14,07,55,14.30
2007,07,14,07,56,14.40
2007,07,14,07,57,14.40
2007,07,14,07,58,14.50
2007,07,14,07,59,14.50
2007,07,14,08,00,14.60
2007,07,14,08,01,14.70
2007,07,14,08,02,14.70
2007,07,14,08,03,14.80
2007,07,14,08,04,14.80
2007,07,14,08,05,14.90
2007,07,14,08,06,14.90
2007,07,14,08,07,14.90
2007,07,14,08,08,15.00
2007,07,14,08,09,15.10
2007,07,14,08,10,15.20
2007,07,14,08,11,15.30
2007,07,14,08,12,15.30
2007,07,14,08,13,15.30
2007,07,14,08,14,15.30
2007,07,14,08,15,15.40
2007,07,14,08,16,15.40
2007,07,14,08,17,15.40
2007,07,14,08,18,15.50
2007,07,14,08,19,15.50
2007,07,14,08,20,15.50
2007,07,14,08,21,15.50
2007,07,14,08,22,15.60
2007,07,14,08,23,15.70
2007,07,14,08,24,15.70
2007,07,14,08,25,15.80
2007,07,14,08,26,15.80
2007,07,14,08,27,15.80
2007,07,14,08,28,15.90
2007,07,14,08,29,16.00
2007,07,14,08,30,16.10
2007,07,14,08,31,16.20
2007,07,14,08,32,16.20
2007,07,14,08,33,16.30
2007,07,14,08,34,16.30
2007,07,14,08,35,16.30
2007,07,14,08,36,16.30
2007,07,14,08,37,16.20
2007,07,14,08,38,16.20
2007,07,14,08,39,16.10
2007,07,14,08,40,16.10
2007,07,14,08,41,16.10
2007,07,14,08,42,16.10
2007,07,14,08,43,16.10
2007,07,14,08,44,16.10
2007,07,14,08,45,16.10
2007,07,14,08,46,16.20
2007,07,14,08,47,16.30
2007,07,14,08,48,16.40
2007,07,14,08,49,16.40
2007,07,14,08,50,16.40
2007,07,14,08,51,16.50
2007,07,14,08,52,16.60
2007,07,14,08,53,16.70
2007,07,14,08,54,16.70
2007,07,14,08,55,16.70
2007,07,14,08,56,16.70
2007,07,14,08,57,16.80
2007,07,14,08,58,16.80
2007,07,14,08,59,16.90
2007,07,14,09,00,16.90
2007,07,14,09,01,16.80
2007,07,14,09,02,16.80
2007,07,14,09,03,16.90
2007,07,14,09,04,16.90
2007,07,14,09,05,16.90
2007,07,14,09,06,17.00
2007,07,14,09,07,17.00
2007,07,14,09,08,17.00
2007,07,14,09,09,17.10
2007,07,14,09,10,17.10
2007,07,14,09,11,17.20
2007,07,14,09,12,17.30
2007,07,14,09,13,17.30
2007,07,14,09,14,17.40
2007,07,14,09,15,17.50
2007,07,14,09,16,17.60
2007,07,14,09,17,17.60
2007,07,14,09,18,17.70
2007,07,14,09,19,17.70
2007,07,14,09,20,17.80
2007,07,14,09,21,17.80
2007,07,14,09,22,17.90
2007,07,14,09,23,17.90
2007,07,14,09,24,17.90
2007,07,14,09,25,18.00
2007,07,14,09,26,18.10
2007,07,14,09,27,18.20
2007,07,14,09,28,18.20
2007,07,14,09,29,18.20
2007,07,14,09,30,18.20
2007,07,14,09,31,18.20
2007,07,14,09,32,18.20
2007,07,14,09,33,18.20
2007,07,14,09,34,18.20
2007,07,14,09,35,18.20
2007,07,14,09,36,18.20
2007,07,14,09,37,18.20
2007,07,14,09,38,18.20
2007,07,14,09,39,18.20
2007,07,14,09,40,18.10
2007,07,14,09,41,18.10
2007,07,14,09,42,18.00
2007,07,14,09,43,17.90
2007,07,14,09,44,17.90
2007,07,14,09,45,17.90
2007,07,14,09,46,17.80
2007,07,14,09,47,17.80
2007,07,14,09,48,17.70
2007,07,14,09,49,17.70
2007,07,14,09,50,17.60
2007,07,14,09,51,17.50
2007,07,14,09,52,17.40
2007,07,14,09,53,17.40
2007,07,14,09,54,17.30
2007,07,14,09,55,17.30
2007,07,14,09,56,17.30
2007,07,14,09,57,17.30
2007,07,14,09,58,17.30
2007,07,14,09,59,17.30
2007,07,14,10,00,17.30
2007,07,14,10,01,17.40
2007,07,14,10,02,17.40
2007,07,14,10,03,17.40
2007,07,14,10,04,17.40
2007,07,14,10,05,17.50
2007,07,14,10,06,17.50
2007,07,14,10,07,17.50
2007,07,14,10,08,17.50
2007,07,14,10,09,17.50
2007,07,14,10,10,17.50
2007,07,14,10,11,17.50
2007,07,14,10,12,17.50
2007,07,14,10,13,17.50
2007,07,14,10,14,17.50
2007,07,14,10,15,17.50
2007,07,14,10,16,17.50
2007,07,14,10,17,17.50
2007,07,14,10,18,17.50
2007,07,14,10,19,17.50
2007,07,14,10,20,17.60
2007,07,14,10,21,17.60
2007,07,14,10,22,17.60
2007,07,14,10,23,17.60
2007,07,14,10,24,17.70
2007,07,14,10,25,17.70
2007,07,14,10,26,17.80
2007,07,14,10,27,17.80
2007,07,14,10,28,17.90
2007,07,14,10,29,17.90
2007,07,14,10,30,17.90
2007,07,14,10,31,17.90
2007,07,14,10,32,17.90
2007,07,14,10,33,17.90
2007,07,14,10,34,17.90
2007,07,14,10,35,17.90
2007,07,14,10,36,17.80
2007,07,14,10,37,17.70
2007,07,14,10,38,17.60
2007,07,14,10,39,17.60
2007,07,14,10,40,17.50
2007,07,14,10,41,17.50
2007,07,14,10,42,17.50
2007,07,14,10,43,17.40
2007,07,14,10,44,17.40
2007,07,14,10,45,17.40
2007,07,14,10,46,17.40
2007,07,14,10,47,17.40
2007,07,14,10,48,17.40
2007,07,14,10,49,17.50
2007,07,14,10,50,17.60
2007,07,14,10,51,17.70
2007,07,14,10,52,17.70
2007,07,14,10,53,17.80
2007,07,14,10,54,17.90
2007,07,14,10,55,17.90
2007,07,14,10,56,17.90
2007,07,14,10,57,18.10
2007,07,14,10,58,18.10
2007,07,14,10,59,18.10
2007,07,14,11,00,18.20
2007,07,14,11,01,18.30
2007,07,14,11,02,18.30
2007,07,14,11,03,18.30
2007,07,14,11,04,18.50
2007,07,14,11,05,18.60
2007,07,14,11,06,18.70
2007,07,14,11,07,18.70
2007,07,14,11,08,18.80
2007,07,14,11,09,18.90
2007,07,14,11,10,18.90
2007,07,14,11,11,19.00
2007,07,14,11,12,19.10
2007,07,14,11,13,19.10
2007,07,14,11,14,19.10
2007,07,14,11,15,19.20
2007,07,14,11,16,19.20
2007,07,14,11,17,19.30
2007,07,14,11,18,19.30
2007,07,14,11,19,19.40
2007,07,14,11,20,19.40
2007,07,14,11,21,19.50
2007,07,14,11,22,19.60
2007,07,14,11,23,19.60
2007,07,14,11,24,19.60
2007,07,14,11,25,19.60
2007,07,14,11,26,19.60
2007,07,14,11,27,19.70
2007,07,14,11,28,19.70
2007,07,14,11,29,19.80
2007,07,14,11,30,19.90
2007,07,14,11,31,19.90
2007,07,14,11,32,19.90
2007,07,14,11,33,19.90
2007,07,14,11,34,19.90
2007,07,14,11,35,19.80
2007,07,14,11,36,19.60
2007,07,14,11,37,19.50
2007,07,14,11,38,19.40
2007,07,14,11,39,19.50
2007,07,14,11,40,19.50
2007,07,14,11,41,19.60
2007,07,14,11,42,19.70
2007,07,14,11,43,19.80
2007,07,14,11,44,19.80
2007,07,14,11,45,19.80
2007,07,14,11,46,19.80
2007,07,14,11,47,19.70
2007,07,14,11,48,19.60
2007,07,14,11,49,19.60
2007,07,14,11,50,19.60
2007,07,14,11,51,19.70
2007,07,14,11,52,19.70
2007,07,14,11,53,19.80
2007,07,14,11,54,19.80
2007,07,14,11,55,19.90
2007,07,14,11,56,19.90
2007,07,14,11,57,19.90
2007,07,14,11,58,19.90
2007,07,14,11,59,19.90
2007,07,14,12,00,19.80
2007,07,14,12,01,19.80
2007,07,14,12,02,19.80
2007,07,14,12,03,19.80
2007,07,14,12,04,19.90
2007,07,14,12,05,19.90
2007,07,14,12,06,19.90
2007,07,14,12,07,19.90
2007,07,14,12,08,20.10
2007,07,14,12,09,20.10
2007,07,14,12,10,20.10
2007,07,14,12,11,20.20
2007,07,14,12,12,20.20
2007,07,14,12,13,20.20
2007,07,14,12,14,20.20
2007,07,14,12,15,20.20
2007,07,14,12,16,20.20
2007,07,14,12,17,20.30
2007,07,14,12,18,20.40
2007,07,14,12,19,20.40
2007,07,14,12,20,20.50
2007,07,14,12,21,20.50
2007,07,14,12,22,20.50
2007,07,14,12,23,20.50
2007,07,14,12,24,20.40
2007,07,14,12,25,20.30
2007,07,14,12,26,20.30
2007,07,14,12,27,20.40
2007,07,14,12,28,20.40
2007,07,14,12,29,20.40
2007,07,14,12,30,20.40
2007,07,14,12,31,20.40
2007,07,14,12,32,20.40
2007,07,14,12,33,20.50
2007,07,14,12,34,20.60
2007,07,14,12,35,20.60
2007,07,14,12,36,20.70
2007,07,14,12,37,20.70
2007,07,14,12,38,20.70
2007,07,14,12,39,20.60
2007,07,14,12,40,20.60
2007,07,14,12,41,20.50
2007,07,14,12,42,20.50
2007,07,14,12,43,20.60
2007,07,14,12,44,20.80
2007,07,14,12,45,21.00
2007,07,14,12,46,21.20
2007,07,14,12,47,21.30
2007,07,14,12,48,21.30
2007,07,14,12,49,21.30
2007,07,14,12,50,21.30
2007,07,14,12,51,21.30
2007,07,14,12,52,21.30
2007,07,14,12,53,21.40
2007,07,14,12,54,21.50
2007,07,14,12,55,21.60
2007,07,14,12,56,21.60
2007,07,14,12,57,21.70
2007,07,14,12,58,21.70
2007,07,14,12,59,21.80
2007,07,14,13,00,21.90
2007,07,14,13,01,22.00
2007,07,14,13,02,22.00
2007,07,14,13,03,22.10
2007,07,14,13,04,22.10
2007,07,14,13,05,22.10
2007,07,14,13,06,22.10
2007,07,14,13,07,22.10
2007,07,14,13,08,22.20
2007,07,14,13,09,22.20
2007,07,14,13,10,22.20
2007,07,14,13,11,22.20
2007,07,14,13,12,22.20
2007,07,14,13,13,22.20
2007,07,14,13,14,22.20
2007,07,14,13,15,22.20
2007,07,14,13,16,22.20
2007,07,14,13,17,22.20
2007,07,14,13,18,22.20
2007,07,14,13,19,22.20
2007,07,14,13,20,22.30
2007,07,14,13,21,22.30
2007,07,14,13,22,22.40
2007,07,14,13,23,22.50
2007,07,14,13,24,22.50
2007,07,14,13,25,22.60
2007,07,14,13,26,22.60
2007,07,14,13,27,22.70
2007,07,14,13,28,22.80
2007,07,14,13,29,22.90
2007,07,14,13,30,22.90
2007,07,14,13,31,22.90
2007,07,14,13,32,23.00
2007,07,14,13,33,23.10
2007,07,14,13,34,23.10
2007,07,14,13,35,23.10
2007,07,14,13,36,23.10
2007,07,14,13,37,23.00
2007,07,14,13,38,22.90
2007,07,14,13,39,22.90
2007,07,14,13,40,22.80
2007,07,14,13,41,22.80
2007,07,14,13,42,22.80
2007,07,14,13,43,22.80
2007,07,14,13,44,22.80
2007,07,14,13,45,22.80
2007,07,14,13,46,22.80
2007,07,14,13,47,22.90
2007,07,14,13,48,22.90
2007,07,14,13,49,22.90
2007,07,14,13,50,23.00
2007,07,14,13,51,23.10
2007,07,14,13,52,23.10
2007,07,14,13,53,23.10
2007,07,14,13,54,23.10
2007,07,14,13,55,23.10
2007,07,14,13,56,23.10
2007,07,14,13,57,23.10
2007,07,14,13,58,23.10
2007,07,14,13,59,23.20
2007,07,14,14,00,23.20
2007,07,14,14,01,23.20
2007,07,14,14,02,23.20
2007,07,14,14,03,23.20
2007,07,14,14,04,23.30
2007,07,14,14,05,23.30
2007,07,14,14,06,23.30
2007,07,14,14,07,23.30
2007,07,14,14,08,23.30
2007,07,14,14,09,23.40
2007,07,14,14,10,23.30
2007,07,14,14,11,23.40
2007,07,14,14,12,23.40
2007,07,14,14,13,23.30
2007,07,14,14,14,23.30
2007,07,14,14,15,23.30
2007,07,14,14,16,23.20
2007,07,14,14,17,23.20
2007,07,14,14,18,23.30
2007,07,14,14,19,23.30
2007,07,14,14,20,23.30
2007,07,14,14,21,23.30
2007,07,14,14,22,23.30
2007,07,14,14,23,23.20
2007,07,14,14,24,23.10
2007,07,14,14,25,23.10
2007,07,14,14,26,23.00
2007,07,14,14,27,22.90
2007,07,14,14,28,22.80
2007,07,14,14,29,22.80
2007,07,14,14,30,22.70
2007,07,14,14,31,22.70
2007,07,14,14,32,22.80
2007,07,14,14,33,22.90
2007,07,14,14,34,22.90
2007,07,14,14,35,22.90
2007,07,14,14,36,22.90
2007,07,14,14,37,22.90
2007,07,14,14,38,23.00
2007,07,14,14,39,23.10
2007,07,14,14,40,23.00
2007,07,14,14,41,22.90
2007,07,14,14,42,22.90
2007,07,14,14,43,22.80
2007,07,14,14,44,22.80
2007,07,14,14,45,22.70
2007,07,14,14,46,22.70
2007,07,14,14,47,22.70
2007,07,14,14,48,22.70
2007,07,14,14,49,22.70
2007,07,14,14,50,22.70
2007,07,14,14,51,22.70
2007,07,14,14,52,22.60
2007,07,14,14,53,22.60
2007,07,14,14,54,22.50
2007,07,14,14,55,22.40
2007,07,14,14,56,22.40
2007,07,14,14,57,22.40
2007,07,14,14,58,22.30
2007,07,14,14,59,22.30
2007,07,14,15,00,22.30
2007,07,14,15,01,22.30
2007,07,14,15,02,22.30
2007,07,14,15,03,22.30
2007,07,14,15,04,22.30
2007,07,14,15,05,22.30
2007,07,14,15,06,22.30
2007,07,14,15,07,22.40
2007,07,14,15,08,22.50
2007,07,14,15,09,22.60
2007,07,14,15,10,22.70
2007,07,14,15,11,22.70
2007,07,14,15,12,22.70
2007,07,14,15,13,22.70
2007,07,14,15,14,22.70
2007,07,14,15,15,22.70
2007,07,14,15,16,22.80
2007,07,14,15,17,22.80
2007,07,14,15,18,22.80
2007,07,14,15,19,22.70
2007,07,14,15,20,22.60
2007,07,14,15,21,22.50
2007,07,14,15,22,22.40
2007,07,14,15,23,22.20
2007,07,14,15,24,22.10
2007,07,14,15,25,22.00
2007,07,14,15,26,21.90
2007,07,14,15,27,21.80
2007,07,14,15,28,21.80
2007,07,14,15,29,21.70
2007,07,14,15,30,21.70
2007,07,14,15,31,21.70
2007,07,14,15,32,21.70
2007,07,14,15,33,21.70
2007,07,14,15,34,21.70
2007,07,14,15,35,21.80
2007,07,14,15,36,21.90
2007,07,14,15,37,22.00
2007,07,14,15,38,22.00
2007,07,14,15,39,22.10
2007,07,14,15,40,22.20
2007,07,14,15,41,22.10
2007,07,14,15,42,22.10
2007,07,14,15,43,22.00
2007,07,14,15,44,22.00
2007,07,14,15,45,21.90
2007,07,14,15,46,21.80
2007,07,14,15,47,21.70
2007,07,14,15,48,21.70
2007,07,14,15,49,21.80
2007,07,14,15,50,21.80
2007,07,14,15,51,21.90
2007,07,14,15,52,21.90
2007,07,14,15,53,21.90
2007,07,14,15,54,21.90
2007,07,14,15,55,22.00
2007,07,14,15,56,22.00
2007,07,14,15,57,22.10
2007,07,14,15,58,22.20
2007,07,14,15,59,22.30
2007,07,14,16,00,22.40
2007,07,14,16,01,22.50
2007,07,14,16,02,22.60
2007,07,14,16,03,22.60
2007,07,14,16,04,22.60
2007,07,14,16,05,22.70
2007,07,14,16,06,22.70
2007,07,14,16,07,22.70
2007,07,14,16,08,22.60
2007,07,14,16,09,22.60
2007,07,14,16,10,22.60
2007,07,14,16,11,22.60
2007,07,14,16,12,22.60
2007,07,14,16,13,22.60
2007,07,14,16,14,22.70
2007,07,14,16,15,22.70
2007,07,14,16,16,22.80
2007,07,14,16,17,22.80
2007,07,14,16,18,22.90
2007,07,14,16,19,22.90
2007,07,14,16,20,22.90
2007,07,14,16,21,22.90
2007,07,14,16,22,22.90
2007,07,14,16,23,22.90
2007,07,14,16,24,22.90
2007,07,14,16,25,22.90
2007,07,14,16,26,22.90
2007,07,14,16,27,22.90
2007,07,14,16,28,22.90
2007,07,14,16,29,22.90
2007,07,14,16,30,22.90
2007,07,14,16,31,22.90
2007,07,14,16,32,22.80
2007,07,14,16,33,22.80
2007,07,14,16,34,22.70
2007,07,14,16,35,22.50
2007,07,14,16,36,22.30
2007,07,14,16,37,22.20
2007,07,14,16,38,22.10
2007,07,14,16,39,22.00
2007,07,14,16,40,21.90
2007,07,14,16,41,21.80
2007,07,14,16,42,21.80
2007,07,14,16,43,21.80
2007,07,14,16,44,21.90
2007,07,14,16,45,22.00
2007,07,14,16,46,22.00
2007,07,14,16,47,22.20
2007,07,14,16,48,22.30
2007,07,14,16,49,22.50
2007,07,14,16,50,22.60
2007,07,14,16,51,22.80
2007,07,14,16,52,22.90
2007,07,14,16,53,23.10
2007,07,14,16,54,23.30
2007,07,14,16,55,23.30
2007,07,14,16,56,23.30
2007,07,14,16,57,23.40
2007,07,14,16,58,23.40
2007,07,14,16,59,23.60
2007,07,14,17,00,23.60
2007,07,14,17,01,23.70
2007,07,14,17,02,23.70
2007,07,14,17,03,23.80
2007,07,14,17,04,24.00
2007,07,14,17,05,24.10
2007,07,14,17,06,24.20
2007,07,14,17,07,24.20
2007,07,14,17,08,24.30
2007,07,14,17,09,24.40
2007,07,14,17,10,24.40
2007,07,14,17,11,24.40
2007,07,14,17,12,24.40
2007,07,14,17,13,24.40
2007,07,14,17,14,24.40
2007,07,14,17,15,24.40
2007,07,14,17,16,24.40
2007,07,14,17,17,24.40
2007,07,14,17,18,24.40
2007,07,14,17,19,24.40